AAY4752 KBNA-KCVG

Flight info

Callsign AAY4752
Flight time 0h 51m
Altitude 29000
Route GDOGG4 FAPER JRICO SARGO5
Aircraft A320/M-SDE3FGHIRWY/LB1

Departure

Time 2026-05-06 03:49
Airport Nashville International Airport (KBNA)

Arrival

Time 2026-05-06 04:40
Airport Cincinnati Northern Kentucky International Airport (KCVG)
Time Latitude Longitude Altitude Speed Heading
2026-05-06 03:48 36.12269 -86.87356 7709 ft 303 kts
2026-05-06 03:49 36.14350 -86.86880 8636 ft 306 kts
2026-05-06 03:49 36.16420 -86.86236 9511 ft 309 kts
2026-05-06 03:49 36.18508 -86.85533 10223 ft 316 kts
2026-05-06 03:49 36.20716 -86.84806 10446 ft 339 kts
2026-05-06 03:50 36.23049 -86.84066 10943 ft 350 kts
2026-05-06 03:50 36.25428 -86.83331 11652 ft 354 kts
2026-05-06 03:50 36.27830 -86.82608 12394 ft 357 kts
2026-05-06 03:50 36.30258 -86.81895 13115 ft 360 kts
2026-05-06 03:51 36.32712 -86.81184 13825 ft 363 kts
2026-05-06 03:51 36.35180 -86.80472 14453 ft 366 kts
2026-05-06 03:51 36.37645 -86.79760 15075 ft 369 kts
2026-05-06 03:51 36.40157 -86.79031 15698 ft 373 kts
2026-05-06 03:52 36.42696 -86.78291 16307 ft 376 kts
2026-05-06 03:52 36.45261 -86.77541 16920 ft 380 kts
2026-05-06 03:52 36.47842 -86.76785 17525 ft 383 kts
2026-05-06 03:52 36.50452 -86.76020 18126 ft 387 kts
2026-05-06 03:53 36.53082 -86.75250 18645 ft 390 kts
2026-05-06 03:53 36.55729 -86.74472 19168 ft 393 kts
2026-05-06 03:53 36.58403 -86.73744 19677 ft 392 kts
2026-05-06 03:53 36.61096 -86.73519 20199 ft 385 kts 351°
2026-05-06 03:54 36.63780 -86.73632 20719 ft 387 kts 350°
2026-05-06 03:54 36.66484 -86.73752 21255 ft 390 kts 350°
2026-05-06 03:54 36.69214 -86.73872 21778 ft 393 kts 350°
2026-05-06 03:54 36.71962 -86.73977 22302 ft 396 kts 349°
2026-05-06 03:55 36.74723 -86.74106 22822 ft 399 kts 349°
2026-05-06 03:55 36.77503 -86.74278 23332 ft 401 kts 348°
2026-05-06 03:55 36.80295 -86.74490 23756 ft 403 kts 347°
2026-05-06 03:55 36.83101 -86.74727 24158 ft 405 kts 347°
2026-05-06 03:56 36.85926 -86.74976 24557 ft 408 kts 347°
2026-05-06 03:56 36.88770 -86.75223 24952 ft 411 kts 347°
2026-05-06 03:56 36.91633 -86.75469 25325 ft 414 kts 347°
2026-05-06 03:56 36.94513 -86.75711 25699 ft 416 kts 347°
2026-05-06 03:57 36.97411 -86.75948 26073 ft 419 kts 347°
2026-05-06 03:57 37.00325 -86.76187 26438 ft 421 kts 347°
2026-05-06 03:57 37.03217 -86.76424 26794 ft 423 kts 347°
2026-05-06 03:57 37.06164 -86.76663 27160 ft 425 kts 347°
2026-05-06 03:58 37.09163 -86.76908 27516 ft 428 kts 347°
2026-05-06 03:58 37.12099 -86.77150 27866 ft 430 kts 346°
2026-05-06 03:58 37.15095 -86.77401 28226 ft 432 kts 346°
2026-05-06 03:58 37.18099 -86.77651 28571 ft 434 kts 346°
2026-05-06 03:59 37.21121 -86.77900 28786 ft 435 kts 346°
2026-05-06 03:59 37.24091 -86.78134 28815 ft 419 kts 346°
2026-05-06 03:59 37.29789 -86.78568 28817 ft 406 kts 346°
2026-05-06 04:00 37.35420 -86.78949 28814 ft 411 kts 351°
2026-05-06 04:00 37.41173 -86.78494 28809 ft 414 kts 353°
2026-05-06 04:01 37.46927 -86.77981 28810 ft 415 kts 353°
2026-05-06 04:01 37.52681 -86.77456 28818 ft 414 kts 353°
2026-05-06 04:02 37.58429 -86.76935 28815 ft 414 kts 353°
2026-05-06 04:02 37.64144 -86.76417 28826 ft 414 kts 353°
2026-05-06 04:03 37.69896 -86.75903 28828 ft 414 kts 353°
2026-05-06 04:03 37.75646 -86.75391 28832 ft 414 kts 353°
2026-05-06 04:04 37.81195 -86.75961 28822 ft 381 kts 328°
2026-05-06 04:04 37.86007 -86.78515 28825 ft 373 kts 326°
2026-05-06 04:05 37.88549 -86.79468 28833 ft 394 kts 342°
2026-05-06 04:05 37.91371 -86.79361 28828 ft 419 kts 358°
2026-05-06 04:05 37.94288 -86.78702 28829 ft 432 kts 359°
2026-05-06 04:05 37.97287 -86.77986 28837 ft 445 kts
2026-05-06 04:06 38.03434 -86.76434 28848 ft 453 kts
2026-05-06 04:06 38.09480 -86.74867 28451 ft 434 kts
2026-05-06 04:07 38.12441 -86.74121 27690 ft 435 kts
2026-05-06 04:07 38.15409 -86.73396 27021 ft 435 kts
2026-05-06 04:07 38.18375 -86.72678 26327 ft 434 kts
2026-05-06 04:07 38.21378 -86.71814 25275 ft 456 kts 12°
2026-05-06 04:08 38.24199 -86.69785 24567 ft 478 kts 34°
2026-05-06 04:08 38.26380 -86.66545 23951 ft 489 kts 57°
2026-05-06 04:08 38.27679 -86.62537 23330 ft 491 kts 72°
2026-05-06 04:08 38.28561 -86.58397 22672 ft 489 kts 76°
2026-05-06 04:09 38.29265 -86.54189 22125 ft 485 kts 79°
2026-05-06 04:09 38.29876 -86.49983 21815 ft 482 kts 80°
2026-05-06 04:09 38.30476 -86.45789 21557 ft 481 kts 79°
2026-05-06 04:09 38.31114 -86.41618 21307 ft 479 kts 78°
2026-05-06 04:10 38.31800 -86.37479 21052 ft 477 kts 77°
2026-05-06 04:10 38.32524 -86.33372 20816 ft 474 kts 77°
2026-05-06 04:10 38.33263 -86.29329 20836 ft 460 kts 77°
2026-05-06 04:10 38.33980 -86.25440 20833 ft 444 kts 77°
2026-05-06 04:11 38.34720 -86.21694 20837 ft 427 kts 71°
2026-05-06 04:11 38.35816 -86.18262 20733 ft 413 kts 60°
2026-05-06 04:11 38.37186 -86.15082 20487 ft 406 kts 58°
2026-05-06 04:11 38.38555 -86.11950 20243 ft 403 kts 58°
2026-05-06 04:12 38.39918 -86.08840 20004 ft 401 kts 58°
2026-05-06 04:12 38.41268 -86.05751 19763 ft 399 kts 58°
2026-05-06 04:12 38.42612 -86.02668 19522 ft 397 kts 59°
2026-05-06 04:12 38.43950 -85.99595 19289 ft 395 kts 59°
2026-05-06 04:13 38.45277 -85.96539 19056 ft 393 kts 59°
2026-05-06 04:13 38.46597 -85.93497 18823 ft 391 kts 59°
2026-05-06 04:13 38.47912 -85.90468 18590 ft 389 kts 59°
2026-05-06 04:13 38.49221 -85.87454 18430 ft 388 kts 59°
2026-05-06 04:14 38.50537 -85.84463 18228 ft 385 kts 59°
2026-05-06 04:14 38.51846 -85.81490 17916 ft 382 kts 59°
2026-05-06 04:14 38.53128 -85.78531 17660 ft 381 kts 59°
2026-05-06 04:14 38.53970 -85.76568 17480 ft 379 kts 60°
2026-05-06 04:15 38.55649 -85.72620 17135 ft 377 kts 60°
2026-05-06 04:15 38.56476 -85.70673 16971 ft 376 kts 60°
2026-05-06 04:15 38.57718 -85.67753 16707 ft 374 kts 59°
2026-05-06 04:15 38.58966 -85.64842 16480 ft 372 kts 59°
2026-05-06 04:16 38.60211 -85.61951 16237 ft 371 kts 59°
2026-05-06 04:16 38.61453 -85.59070 15987 ft 369 kts 59°
2026-05-06 04:16 38.62686 -85.56200 15737 ft 367 kts 59°
2026-05-06 04:16 38.63912 -85.53338 15494 ft 366 kts 59°
2026-05-06 04:17 38.65285 -85.50639 15271 ft 357 kts 43°
2026-05-06 04:17 38.67072 -85.48533 15155 ft 344 kts 35°
2026-05-06 04:17 38.68882 -85.46596 15030 ft 335 kts 34°
2026-05-06 04:17 38.70653 -85.44716 14912 ft 327 kts 34°
2026-05-06 04:18 38.72378 -85.42876 14786 ft 319 kts 34°
2026-05-06 04:18 38.74056 -85.41079 14670 ft 311 kts 34°
2026-05-06 04:18 38.75696 -85.39317 14531 ft 305 kts 34°
2026-05-06 04:18 38.77310 -85.37579 14306 ft 302 kts 34°
2026-05-06 04:19 38.78911 -85.35855 14041 ft 300 kts 34°
2026-05-06 04:19 38.80507 -85.34136 13790 ft 298 kts 34°
2026-05-06 04:19 38.82094 -85.32428 13530 ft 297 kts 34°
2026-05-06 04:19 38.83670 -85.30730 13219 ft 296 kts 34°
2026-05-06 04:20 38.85246 -85.29035 12932 ft 294 kts 34°
2026-05-06 04:20 38.86814 -85.27358 12646 ft 293 kts 34°
2026-05-06 04:20 38.88376 -85.25691 12372 ft 291 kts 34°
2026-05-06 04:20 38.90047 -85.24337 12078 ft 279 kts 14°
2026-05-06 04:21 38.91859 -85.23503 11759 ft 275 kts 10°
2026-05-06 04:21 38.93682 -85.22762 11459 ft 274 kts
2026-05-06 04:21 38.95497 -85.22042 11154 ft 273 kts
2026-05-06 04:21 38.97305 -85.21328 10869 ft 271 kts
2026-05-06 04:22 38.99078 -85.20627 10567 ft 270 kts
2026-05-06 04:22 39.00869 -85.19927 10266 ft 269 kts
2026-05-06 04:22 39.02656 -85.19236 9967 ft 268 kts
2026-05-06 04:23 39.06214 -85.17868 9351 ft 266 kts
2026-05-06 04:23 39.08009 -85.17197 9001 ft 265 kts
2026-05-06 04:23 39.09773 -85.16549 8683 ft 263 kts
2026-05-06 04:23 39.11526 -85.15910 8361 ft 261 kts
2026-05-06 04:24 39.13263 -85.15231 8030 ft 263 kts 19°
2026-05-06 04:24 39.14794 -85.13922 7705 ft 266 kts 37°
2026-05-06 04:24 39.16192 -85.12354 7357 ft 266 kts 39°
2026-05-06 04:24 39.17565 -85.10767 7054 ft 264 kts 39°
2026-05-06 04:25 39.18929 -85.09193 6742 ft 262 kts 39°
2026-05-06 04:25 39.20290 -85.07630 6419 ft 261 kts 39°
2026-05-06 04:25 39.21643 -85.06078 6135 ft 259 kts 39°
2026-05-06 04:25 39.22968 -85.04563 6044 ft 258 kts 39°
2026-05-06 04:26 39.24315 -85.03021 6050 ft 259 kts 39°
2026-05-06 04:26 39.25666 -85.01474 6053 ft 260 kts 39°
2026-05-06 04:26 39.27021 -84.99927 6049 ft 260 kts 39°
2026-05-06 04:26 39.28379 -84.98376 6055 ft 261 kts 39°
2026-05-06 04:27 39.29730 -84.96823 6048 ft 260 kts 39°
2026-05-06 04:27 39.31153 -84.95406 6047 ft 256 kts 22°
2026-05-06 04:27 39.32785 -84.94516 6053 ft 255 kts 15°
2026-05-06 04:27 39.34451 -84.93746 6045 ft 254 kts 14°
2026-05-06 04:28 39.36118 -84.92995 6045 ft 254 kts 14°
2026-05-06 04:28 39.37790 -84.92241 6048 ft 254 kts 14°
2026-05-06 04:28 39.39454 -84.91492 6047 ft 254 kts 14°
2026-05-06 04:28 39.41122 -84.90743 6045 ft 253 kts 14°
2026-05-06 04:29 39.42790 -84.89995 6025 ft 253 kts 14°
2026-05-06 04:29 39.44445 -84.89250 5711 ft 252 kts 16°
2026-05-06 04:29 39.45928 -84.88054 5389 ft 255 kts 47°
2026-05-06 04:29 39.46761 -84.86072 5088 ft 250 kts 82°
2026-05-06 04:30 39.46686 -84.83882 5035 ft 244 kts 112°
2026-05-06 04:30 39.46101 -84.81815 5038 ft 245 kts 118°
2026-05-06 04:30 39.45443 -84.79788 5042 ft 245 kts 119°
2026-05-06 04:30 39.44775 -84.77758 5042 ft 245 kts 119°
2026-05-06 04:31 39.44102 -84.75736 5042 ft 244 kts 122°
2026-05-06 04:31 39.43113 -84.74050 4960 ft 230 kts 147°
2026-05-06 04:31 39.41841 -84.72822 4654 ft 226 kts 153°
2026-05-06 04:31 39.40541 -84.71689 4331 ft 225 kts 154°
2026-05-06 04:32 39.39233 -84.70581 4074 ft 223 kts 154°
2026-05-06 04:32 39.37918 -84.69488 4044 ft 225 kts 154°
2026-05-06 04:32 39.36599 -84.68401 4035 ft 225 kts 154°
2026-05-06 04:32 39.35275 -84.67317 4035 ft 224 kts 158°
2026-05-06 04:33 39.33840 -84.66756 4044 ft 211 kts 184°
2026-05-06 04:33 39.32379 -84.66748 4039 ft 210 kts 187°
2026-05-06 04:33 39.30946 -84.66757 4044 ft 201 kts 187°
2026-05-06 04:33 39.29514 -84.66767 4033 ft 204 kts 187°
2026-05-06 04:34 39.28147 -84.66769 4031 ft 192 kts 187°
2026-05-06 04:34 39.26825 -84.66775 4047 ft 188 kts 188°
2026-05-06 04:34 39.25529 -84.66781 4036 ft 185 kts 187°
2026-05-06 04:34 39.24251 -84.66786 4056 ft 178 kts 188°
2026-05-06 04:35 39.23104 -84.66785 4027 ft 154 kts 189°
2026-05-06 04:35 39.22076 -84.66790 3866 ft 144 kts 189°
2026-05-06 04:35 39.21088 -84.66797 3708 ft 141 kts 189°
2026-05-06 04:35 39.20112 -84.66803 3532 ft 139 kts 189°
2026-05-06 04:36 39.19149 -84.66807 3338 ft 137 kts 190°
2026-05-06 04:36 39.18194 -84.66812 3177 ft 138 kts 189°
2026-05-06 04:36 39.17259 -84.66816 3000 ft 137 kts 190°
2026-05-06 04:36 39.16286 -84.66821 2811 ft 137 kts 190°
2026-05-06 04:37 39.15336 -84.66825 2635 ft 136 kts 189°
2026-05-06 04:37 39.14386 -84.66829 2450 ft 135 kts 189°
2026-05-06 04:37 39.13446 -84.66833 2264 ft 136 kts 188°
2026-05-06 04:37 39.12562 -84.66837 2096 ft 135 kts 189°
2026-05-06 04:38 39.11629 -84.66840 1921 ft 134 kts 188°
2026-05-06 04:38 39.10684 -84.66844 1733 ft 136 kts 185°
2026-05-06 04:38 39.09725 -84.66845 1550 ft 136 kts 184°
2026-05-06 04:38 39.08794 -84.66842 1400 ft 135 kts 182°
2026-05-06 04:39 39.07843 -84.66855 1211 ft 136 kts 182°
2026-05-06 04:39 39.06883 -84.66851 1021 ft 136 kts 182°
2026-05-06 04:39 39.05965 -84.66861 894 ft 129 kts 181°
2026-05-06 04:39 39.05195 -84.66868 882 ft 88 kts 180°
2026-05-06 04:40 39.04861 -84.66859 885 ft 18 kts 156°
2026-05-06 04:40 39.04815 -84.66763 883 ft 2 kts 88°
2026-05-06 04:40 39.04815 -84.66761 883 ft 0 kts 90°
2026-05-06 04:40 39.04828 -84.66743 882 ft 9 kts 31°
2026-05-06 04:41 39.04893 -84.66729 881 ft 9 kts
2026-05-06 04:41 39.04994 -84.66728 881 ft 20 kts 360°
2026-05-06 04:41 39.05118 -84.66728 880 ft 13 kts
2026-05-06 04:41 39.05159 -84.66660 879 ft 10 kts 90°
2026-05-06 04:42 39.05159 -84.66517 879 ft 20 kts 90°
2026-05-06 04:42 39.05157 -84.66339 879 ft 20 kts 90°
2026-05-06 04:42 39.05157 -84.66176 879 ft 15 kts 90°
2026-05-06 04:42 39.05156 -84.66057 879 ft 11 kts 90°
2026-05-06 04:43 39.05199 -84.66010 879 ft 8 kts 24°
2026-05-06 04:43 39.05215 -84.65904 879 ft 13 kts 90°
2026-05-06 04:43 39.05214 -84.65795 879 ft 14 kts 90°
2026-05-06 04:43 39.05213 -84.65656 879 ft 15 kts 90°
2026-05-06 04:44 39.05213 -84.65527 879 ft 13 kts 90°
2026-05-06 04:44 39.05212 -84.65406 879 ft 13 kts 90°
2026-05-06 04:44 39.05254 -84.65355 879 ft 7 kts 12°
2026-05-06 04:44 39.05282 -84.65347 879 ft 1 kts 11°
2026-05-06 04:45 39.05285 -84.65347 879 ft 0 kts 11°
2026-05-06 04:45 39.05289 -84.65346 879 ft 0 kts 11°
2026-05-06 04:45 39.05291 -84.65345 879 ft 0 kts 13°
2026-05-06 04:45 39.05292 -84.65345 879 ft 0 kts 12°